GOES 1 (SMS-C) 1 08366U 75100A 23340.58446056 .00000075 00000-0 00000-0 0 9998 2 08366 6.9548 288.9787 0003766 306.5951 280.9609 1.00270517175805 GOES 2 1 10061U 77048A 23340.65863639 -.00000159 00000-0 00000-0 0 9998 2 10061 8.6142 301.5934 0011408 28.0722 154.8829 0.99401990 37098 GOES 3 1 10953U 78062A 23340.76010493 -.00000249 00000-0 00000-0 0 9999 2 10953 8.9939 306.5217 0001453 239.5897 125.1003 0.99363861119365 GOES 4 1 11964U 80074A 23340.79491404 -.00000294 00000-0 00000-0 0 9996 2 11964 9.9974 310.3568 0030655 87.2536 100.9456 0.99232893118276 GOES 5 1 12472U 81049A 23341.12293734 .00000061 00000-0 00000+0 0 9998 2 12472 11.0161 322.2036 0002627 259.8711 128.1049 1.00222474113705 GOES 6 1 14050U 83041A 23340.60508559 .00000069 00000-0 00000-0 0 9991 2 14050 11.6704 327.6435 0003524 200.2961 353.3004 1.00249286206755 GOES 7 1 17561U 87022A 23340.59725017 .00000010 00000-0 00000-0 0 9998 2 17561 13.7706 344.3050 0002066 77.7172 113.8455 0.99891383117736 GOES 8 1 23051U 94022A 23340.67168979 .00000052 00000-0 00000-0 0 9990 2 23051 13.6355 20.4088 0002233 57.9946 116.4876 0.98903382114997 GOES 9 1 23581U 95025A 23339.46765116 -.00000173 00000-0 00000-0 0 9998 2 23581 13.1371 20.9603 0006609 154.5441 13.3561 0.98800257103622 GOES 10 1 24786U 97019A 23340.67203789 .00000070 00000-0 00000-0 0 9994 2 24786 12.0357 27.3391 0029724 213.9170 315.6332 0.99122335 96911 GOES 11 1 26352U 00022A 23341.11515940 -.00000183 00000-0 00000+0 0 9993 2 26352 9.8301 54.8983 0004702 201.8160 167.3673 0.99042700 85859 GOES 12 1 26871U 01031A 23340.77646521 .00000074 00000-0 00000-0 0 9990 2 26871 10.4911 44.5169 0005343 276.2485 78.5390 0.99135842 81608 GOES 13 1 29155U 06018A 23340.89873388 -.00000153 00000-0 00000-0 0 9993 2 29155 2.1196 87.5284 0086805 246.8134 3.6314 0.99155669 34118 GOES 14 1 35491U 09033A 23340.88916139 -.00000041 00000-0 00000-0 0 9990 2 35491 0.1830 258.7930 0001168 290.3806 97.7315 1.00272060 52854 GOES 15 1 36411U 10008A 23341.13778534 .00000064 00000-0 00000+0 0 9994 2 36411 0.1830 272.3582 0006228 339.9475 294.1749 1.00272281 50370 GOES 16 1 41866U 16071A 23340.35118747 -.00000226 00000-0 00000-0 0 9999 2 41866 0.0399 257.0026 0001147 38.4865 190.6269 1.00272183 25843